sat.trackr.live / text

‹ back to catalog

STARLINK-3957

NORAD 52562 · 2022-051AF

PAYLOAD ACTIVE UNKNOWN

§ Identity

Operator
Country
US
Launch date
2022-05-13
Launch site
AFWTR
Launch vehicle
Mass (kg)
RCS (m²)

Purposes: comms

External: N2YO · Heavens-Above · Gunter

§ Orbital elements

Epoch: 2026-05-24T06:53:38.175360Z

Period
95.44 min
Inclination
53.2160°
Eccentricity
0.0001247
Mean motion
15.08836333 rev/d
Perigee alt
538.9 km
Apogee alt
540.6 km
Semi-major
6,917.9 km
B*
3.4372e-5
RAAN
139.7506°
Arg perigee
77.3290°
Mean anomaly
282.7841°
Rev number
22,299

§ Raw data

STARLINK-39571 52562U 22051AF  26144.28724740  .00000259  00000+0  34372-4 0  99992 52562  53.2160 139.7506 0001247  77.3290 282.7841 15.08836333222998

JSON: /api/v1/satellites/52562 · /tle

For live sub-satellite position, see the globe view (requires WebGL).

§ Visibility from observer

Set your observer location to see the next 7 days of passes ≥ 10°. The values pass through the URL so the page stays shareable.

No JS? Fill the form by hand. The geolocation button needs JavaScript.